| time (UTC) | temp F | wind direction | speed MPH | gust MPH | rain 1hr in | rain 24hr in | rain mn in | humidity % | barometer mb |
| 20260903193004 | 75 | 234 | 11.0 | 19.0 | 0.00 | 0.00 | 0.00 | 47 | 1020.8 |
| 20260903192504 | 76 | 243 | 14.0 | 18.0 | 0.00 | 0.00 | 0.00 | 45 | 1020.8 |
| 20260903192004 | 78 | 193 | 8.0 | 20.0 | 0.00 | 0.00 | 0.00 | 43 | 1020.9 |
| 20260903190003 | 78 | 105 | 5.0 | 15.0 | 0.00 | 0.00 | 0.00 | 44 | 1021.1 |
| 20260903185503 | 76 | 145 | 8.0 | 17.0 | 0.00 | 0.00 | 0.00 | 44 | 1021.3 |
| 20260903185004 | 77 | 165 | 6.0 | 15.0 | 0.00 | 0.00 | 0.00 | 44 | 1021.4 |
| 20260903184504 | 77 | 146 | 6.0 | 9.0 | 0.00 | 0.00 | 0.00 | 44 | 1021.4 |
| 20260903184004 | 76 | 182 | 16.0 | 19.0 | 0.00 | 0.00 | 0.00 | 44 | 1021.6 |
| 20260903183504 | 76 | 231 | 17.0 | 24.0 | 0.00 | 0.00 | 0.00 | 44 | 1021.4 |
| 20260903181504 | 77 | 233 | 5.0 | 21.0 | 0.00 | 0.00 | 0.00 | 42 | 1021.7 |
| 20260903181004 | 76 | 200 | 12.0 | 22.0 | 0.00 | 0.00 | 0.00 | 42 | 1021.6 |
| 20260903180504 | 76 | 136 | 17.0 | 24.0 | 0.00 | 0.00 | 0.00 | 42 | 1021.7 |
| 20260903180003 | 77 | 117 | 9.0 | 14.0 | 0.00 | 0.00 | 0.00 | 41 | 1021.5 |
| 20260903175504 | 76 | 145 | 10.0 | 13.0 | 0.00 | 0.00 | 0.00 | 41 | 1021.8 |
| 20260903175003 | 76 | 126 | 3.0 | 20.0 | 0.00 | 0.00 | 0.00 | 42 | 1022.0 |
| 20260903174503 | 77 | 143 | 8.0 | 18.0 | 0.00 | 0.00 | 0.00 | 41 | 1021.8 |
| 20260903174004 | 75 | 171 | 7.0 | 13.0 | 0.00 | 0.00 | 0.00 | 42 | 1021.8 |
| 20260903173504 | 74 | 193 | 8.0 | 23.0 | 0.00 | 0.00 | 0.00 | 43 | 1021.9 |
| 20260903173004 | 74 | 205 | 12.0 | 21.0 | 0.00 | 0.00 | 0.00 | 43 | 1021.8 |
| 20260903172504 | 75 | 154 | 11.0 | 19.0 | 0.00 | 0.00 | 0.00 | 42 | 1021.8 |
| 20260903172004 | 74 | 153 | 8.0 | 20.0 | 0.00 | 0.00 | 0.00 | 44 | 1021.7 |
| 20260903171504 | 74 | 156 | 9.0 | 15.0 | 0.00 | 0.00 | 0.00 | 44 | 1021.8 |
| 20260903171004 | 74 | 207 | 15.0 | 24.0 | 0.00 | 0.00 | 0.00 | 44 | 1021.9 |
| 20260903170504 | 75 | 169 | 11.0 | 18.0 | 0.00 | 0.00 | 0.00 | 43 | 1021.8 |
| 20260903170004 | 76 | 199 | 12.0 | 13.0 | 0.00 | 0.00 | 0.00 | 42 | 1021.7 |
| 20260903165503 | 75 | 151 | 7.0 | 12.0 | 0.00 | 0.00 | 0.00 | 43 | 1021.7 |
| 20260903165003 | 74 | 191 | 6.0 | 16.0 | 0.00 | 0.00 | 0.00 | 44 | 1021.8 |
| 20260903164503 | 73 | 197 | 14.0 | 19.0 | 0.00 | 0.00 | 0.00 | 45 | 1021.9 |
| 20260903164004 | 73 | 185 | 16.0 | 23.0 | 0.00 | 0.00 | 0.00 | 45 | 1021.8 |
| 20260903163504 | 74 | 181 | 10.0 | 20.0 | 0.00 | 0.00 | 0.00 | 44 | 1021.6 |
| 20260903163004 | 73 | 207 | 6.0 | 17.0 | 0.00 | 0.00 | 0.00 | 45 | 1021.6 |
| 20260903162504 | 74 | 144 | 10.0 | 17.0 | 0.00 | 0.00 | 0.00 | 43 | 1021.7 |
| 20260903162004 | 74 | 139 | 6.0 | 10.0 | 0.00 | 0.00 | 0.00 | 44 | 1021.7 |
| 20260903161504 | 73 | 196 | 10.0 | 11.0 | 0.00 | 0.00 | 0.00 | 44 | 1021.7 |
| 20260903161003 | 73 | 228 | 10.0 | 14.0 | 0.00 | 0.00 | 0.00 | 44 | 1021.7 |
| 20260903160503 | 72 | 213 | 13.0 | 17.0 | 0.00 | 0.00 | 0.00 | 45 | 1021.6 |
| 20260903160005 | 73 | 190 | 8.0 | 12.0 | 0.00 | 0.00 | 0.00 | 44 | 1021.7 |
| 20260903154504 | 73 | 111 | 8.0 | 10.0 | 0.00 | 0.00 | 0.00 | 43 | 1021.8 |
| 20260903154004 | 72 | 139 | 9.0 | 16.0 | 0.00 | 0.00 | 0.00 | 44 | 1021.6 |
| 20260903153504 | 73 | 177 | 3.0 | 6.0 | 0.00 | 0.00 | 0.00 | 44 | 1021.6 |
| 20260903153004 | 72 | 124 | 3.0 | 3.0 | 0.00 | 0.00 | 0.00 | 45 | 1021.7 |
| 20260903152503 | 72 | 194 | 14.0 | 15.0 | 0.00 | 0.00 | 0.00 | 44 | 1021.8 |
| 20260903152004 | 71 | 127 | 8.0 | 9.0 | 0.00 | 0.00 | 0.00 | 45 | 1021.6 |
| 20260903151503 | 71 | 169 | 3.0 | 4.0 | 0.00 | 0.00 | 0.00 | 46 | 1021.5 |
| 20260903151003 | 71 | 169 | 3.0 | 4.0 | 0.00 | 0.00 | 0.00 | 46 | 1021.6 |
| 20260903150504 | 71 | 226 | 8.0 | 16.0 | 0.00 | 0.00 | 0.00 | 45 | 1021.6 |
| 20260903150004 | 71 | 179 | 7.0 | 15.0 | 0.00 | 0.00 | 0.00 | 46 | 1021.7 |
| 20260903145504 | 70 | 182 | 7.0 | 7.0 | 0.00 | 0.00 | 0.00 | 47 | 1021.6 |
| 20260903145004 | 71 | 163 | 5.0 | 5.0 | 0.00 | 0.00 | 0.00 | 46 | 1021.6 |
| 20260903144504 | 70 | 162 | 3.0 | 5.0 | 0.00 | 0.00 | 0.00 | 47 | 1021.7 |
| 20260903144004 | 69 | 172 | 10.0 | 17.0 | 0.00 | 0.00 | 0.00 | 48 | 1021.6 |
| 20260903143504 | 69 | 172 | 10.0 | 17.0 | 0.00 | 0.00 | 0.00 | 48 | 1021.6 |
| 20260903143004 | 69 | 172 | 10.0 | 17.0 | 0.00 | 0.00 | 0.00 | 48 | 1021.6 |
| 20260903142503 | 68 | 164 | 9.0 | 17.0 | 0.00 | 0.00 | 0.00 | 48 | 1021.5 |
| 20260903142004 | 66 | 196 | 5.0 | 7.0 | 0.00 | 0.00 | 0.00 | 53 | 1021.6 |
| 20260903141503 | 66 | 196 | 5.0 | 7.0 | 0.00 | 0.00 | 0.00 | 53 | 1021.6 |
| 20260903141003 | 66 | 196 | 5.0 | 7.0 | 0.00 | 0.00 | 0.00 | 53 | 1021.6 |
| 20260903140503 | 66 | 196 | 5.0 | 7.0 | 0.00 | 0.00 | 0.00 | 53 | 1021.5 |
| 20260903140003 | 66 | 196 | 5.0 | 7.0 | 0.00 | 0.00 | 0.00 | 53 | 1021.4 |
| 20260903135503 | 66 | 196 | 5.0 | 7.0 | 0.00 | 0.00 | 0.00 | 53 | 1021.4 |
| 20260903135004 | 66 | 196 | 5.0 | 7.0 | 0.00 | 0.00 | 0.00 | 53 | 1021.5 |
| 20260903133004 | 64 | 180 | 4.0 | 5.0 | 0.00 | 0.00 | 0.00 | 51 | 1021.1 |
| 20260903132504 | 64 | 180 | 4.0 | 5.0 | 0.00 | 0.00 | 0.00 | 51 | 1021.3 |
| 20260903132004 | 64 | 180 | 4.0 | 5.0 | 0.00 | 0.00 | 0.00 | 51 | 1021.1 |
| 20260903131504 | 64 | 180 | 4.0 | 5.0 | 0.00 | 0.00 | 0.00 | 51 | 1020.9 |
| 20260903131004 | 64 | 180 | 4.0 | 5.0 | 0.00 | 0.00 | 0.00 | 51 | 1020.8 |
| 20260903130504 | 64 | 180 | 4.0 | 5.0 | 0.00 | 0.00 | 0.00 | 51 | 1020.9 |
| 20260903130003 | 64 | 180 | 4.0 | 5.0 | 0.00 | 0.00 | 0.00 | 51 | 1020.9 |
| 20260903125503 | 64 | 186 | 2.0 | 3.0 | 0.00 | 0.00 | 0.00 | 46 | 1020.8 |
| 20260903125004 | 64 | 186 | 2.0 | 3.0 | 0.00 | 0.00 | 0.00 | 46 | 1020.7 |
| 20260903124503 | 64 | 186 | 2.0 | 3.0 | 0.00 | 0.00 | 0.00 | 46 | 1020.9 |
| 20260903124003 | 64 | 186 | 2.0 | 3.0 | 0.00 | 0.00 | 0.00 | 46 | 1020.8 |
| 20260903123504 | 64 | 186 | 2.0 | 3.0 | 0.00 | 0.00 | 0.00 | 46 | 1020.8 |
| 20260903123004 | 64 | 186 | 2.0 | 3.0 | 0.00 | 0.00 | 0.00 | 46 | 1020.9 |
| 20260903122504 | 64 | 186 | 2.0 | 3.0 | 0.00 | 0.00 | 0.00 | 46 | 1020.8 |
| 20260903122004 | 64 | 186 | 2.0 | 3.0 | 0.00 | 0.00 | 0.00 | 46 | 1020.9 |
| 20260903121504 | 64 | 148 | 2.0 | 3.0 | 0.00 | 0.00 | 0.00 | 45 | 1020.8 |
| 20260903121004 | 65 | 129 | 5.0 | 5.0 | 0.00 | 0.00 | 0.00 | 44 | 1020.8 |
| 20260903120504 | 65 | 206 | 4.0 | 4.0 | 0.00 | 0.00 | 0.00 | 46 | 1020.9 |
| 20260903120004 | 65 | 206 | 4.0 | 4.0 | 0.00 | 0.00 | 0.00 | 46 | 1020.8 |
| 20260903115503 | 65 | 206 | 4.0 | 4.0 | 0.00 | 0.00 | 0.00 | 46 | 1020.5 |
| 20260903113504 | 65 | 206 | 4.0 | 4.0 | 0.00 | 0.00 | 0.00 | 46 | 1020.9 |
| 20260903113004 | 65 | 206 | 4.0 | 4.0 | 0.00 | 0.00 | 0.00 | 46 | 1020.8 |
| 20260903111004 | 63 | 121 | 3.0 | 3.0 | 0.00 | 0.00 | 0.00 | 44 | 1020.7 |
| 20260903110504 | 63 | 121 | 3.0 | 3.0 | 0.00 | 0.00 | 0.00 | 44 | 1020.8 |
| 20260903110003 | 63 | 121 | 3.0 | 3.0 | 0.00 | 0.00 | 0.00 | 44 | 1020.7 |
| 20260903105504 | 63 | 121 | 3.0 | 3.0 | 0.00 | 0.00 | 0.00 | 44 | 1021.0 |
| 20260903105004 | 63 | 121 | 3.0 | 3.0 | 0.00 | 0.00 | 0.00 | 44 | 1020.9 |
| 20260903104504 | 63 | 121 | 3.0 | 3.0 | 0.00 | 0.00 | 0.00 | 44 | 1021.0 |
| 20260903104004 | 63 | 121 | 3.0 | 3.0 | 0.00 | 0.00 | 0.00 | 44 | 1021.0 |
| 20260903103504 | 63 | 121 | 3.0 | 3.0 | 0.00 | 0.00 | 0.00 | 44 | 1021.0 |
| 20260903103003 | 63 | 121 | 3.0 | 3.0 | 0.00 | 0.00 | 0.00 | 44 | 1021.0 |
| 20260903102503 | 63 | 121 | 3.0 | 3.0 | 0.00 | 0.00 | 0.00 | 44 | 1021.3 |
| 20260903102003 | 63 | 279 | 2.0 | 2.0 | 0.00 | 0.00 | 0.00 | 47 | 1021.0 |
| 20260903100504 | 67 | 192 | 3.0 | 7.0 | 0.00 | 0.00 | 0.00 | 41 | 1021.0 |
| 20260903100004 | 67 | 192 | 3.0 | 7.0 | 0.00 | 0.00 | 0.00 | 41 | 1020.9 |
| 20260903095504 | 66 | 184 | 5.0 | 7.0 | 0.00 | 0.00 | 0.00 | 42 | 1021.0 |
| 20260903092503 | 62 | 97 | 4.0 | 4.0 | 0.00 | 0.00 | 0.00 | 40 | 1021.6 |
| 20260903092004 | 62 | 97 | 4.0 | 4.0 | 0.00 | 0.00 | 0.00 | 40 | 1021.4 |
| 20260903091504 | 62 | 97 | 4.0 | 4.0 | 0.00 | 0.00 | 0.00 | 40 | 1021.3 |
| 20260903085503 | 62 | 97 | 4.0 | 4.0 | 0.00 | 0.00 | 0.00 | 40 | 1021.4 |
| 20260903085003 | 62 | 97 | 4.0 | 4.0 | 0.00 | 0.00 | 0.00 | 40 | 1021.1 |
| 20260903084503 | 62 | 97 | 4.0 | 4.0 | 0.00 | 0.00 | 0.00 | 40 | 1021.0 |
| 20260903084004 | 62 | 97 | 4.0 | 4.0 | 0.00 | 0.00 | 0.00 | 40 | 1021.1 |
| 20260903083503 | 62 | 97 | 4.0 | 4.0 | 0.00 | 0.00 | 0.00 | 40 | 1021.3 |
| 20260903083003 | 62 | 97 | 4.0 | 4.0 | 0.00 | 0.00 | 0.00 | 40 | 1021.4 |
| 20260903082503 | 65 | 269 | 3.0 | 3.0 | 0.00 | 0.00 | 0.00 | 32 | 1021.4 |
| 20260903082003 | 65 | 269 | 3.0 | 3.0 | 0.00 | 0.00 | 0.00 | 32 | 1021.4 |
| 20260903081504 | 65 | 269 | 3.0 | 3.0 | 0.00 | 0.00 | 0.00 | 32 | 1021.3 |
| 20260903081003 | 65 | 269 | 3.0 | 3.0 | 0.00 | 0.00 | 0.00 | 32 | 1021.4 |
| 20260903080503 | 65 | 269 | 3.0 | 3.0 | 0.00 | 0.00 | 0.00 | 32 | 1021.6 |
| 20260903080004 | 65 | 269 | 3.0 | 3.0 | 0.00 | 0.00 | 0.00 | 32 | 1021.6 |
| 20260903075503 | 65 | 269 | 3.0 | 3.0 | 0.00 | 0.00 | 0.00 | 32 | 1021.5 |
| 20260903075003 | 65 | 269 | 3.0 | 3.0 | 0.00 | 0.00 | 0.00 | 32 | 1021.7 |
| 20260903074503 | 65 | 269 | 3.0 | 3.0 | 0.00 | 0.00 | 0.00 | 32 | 1021.5 |
| 20260903074004 | 65 | 269 | 3.0 | 3.0 | 0.00 | 0.00 | 0.00 | 32 | 1021.7 |
| 20260903073504 | 65 | 269 | 3.0 | 3.0 | 0.00 | 0.00 | 0.00 | 32 | 1021.6 |
| 20260903073004 | 65 | 269 | 3.0 | 3.0 | 0.00 | 0.00 | 0.00 | 32 | 1021.8 |
| 20260903071003 | 67 | 232 | 4.0 | 4.0 | 0.00 | 0.00 | 0.00 | 33 | 1021.7 |
| 20260903070503 | 67 | 232 | 4.0 | 4.0 | 0.00 | 0.00 | 0.00 | 33 | 1021.6 |
| 20260903070004 | 67 | 232 | 4.0 | 4.0 | 0.00 | 0.00 | 0.00 | 33 | 1021.7 |
| 20260903065504 | 67 | 232 | 4.0 | 4.0 | 0.00 | 0.00 | 0.00 | 33 | 1021.8 |
| 20260903065004 | 67 | 232 | 4.0 | 4.0 | 0.00 | 0.00 | 0.00 | 33 | 1021.8 |
| 20260903064504 | 67 | 232 | 4.0 | 4.0 | 0.00 | 0.00 | 0.00 | 33 | 1021.7 |
| 20260903064003 | 67 | 232 | 4.0 | 4.0 | 0.00 | 0.00 | 0.00 | 33 | 1021.7 |
| 20260903063503 | 67 | 232 | 4.0 | 4.0 | 0.00 | 0.00 | 0.00 | 33 | 1021.8 |
| 20260903063003 | 67 | 232 | 4.0 | 4.0 | 0.00 | 0.00 | 0.00 | 33 | 1021.7 |
| 20260903061004 | 69 | 182 | 7.0 | 8.0 | 0.00 | 0.00 | 0.00 | 32 | 1021.9 |
| 20260903060504 | 69 | 182 | 7.0 | 8.0 | 0.00 | 0.00 | 0.00 | 32 | 1021.8 |
| 20260903060004 | 69 | 182 | 7.0 | 8.0 | 0.00 | 0.00 | 0.00 | 32 | 1021.7 |
| 20260903055504 | 69 | 182 | 7.0 | 8.0 | 0.00 | 0.00 | 0.00 | 32 | 1021.8 |
| 20260903055004 | 69 | 182 | 7.0 | 8.0 | 0.00 | 0.00 | 0.00 | 32 | 1021.7 |
| 20260903054503 | 69 | 182 | 7.0 | 8.0 | 0.00 | 0.00 | 0.00 | 32 | 1021.5 |
| 20260903054003 | 69 | 215 | 9.0 | 9.0 | 0.00 | 0.00 | 0.00 | 33 | 1021.6 |
| 20260903053504 | 69 | 179 | 7.0 | 10.0 | 0.00 | 0.00 | 0.00 | 34 | 1021.5 |
| 20260903053003 | 69 | 179 | 7.0 | 10.0 | 0.00 | 0.00 | 0.00 | 34 | 1021.4 |
| 20260903052503 | 69 | 179 | 7.0 | 10.0 | 0.00 | 0.00 | 0.00 | 34 | 1021.4 |
| 20260903052003 | 69 | 179 | 7.0 | 10.0 | 0.00 | 0.00 | 0.00 | 34 | 1021.5 |
| 20260903033004 | 72 | 213 | 10.0 | 12.0 | 0.00 | 0.00 | 0.00 | 36 | 1021.4 |
| 20260903032504 | 72 | 213 | 10.0 | 12.0 | 0.00 | 0.00 | 0.00 | 36 | 1021.4 |
| 20260903032004 | 72 | 213 | 10.0 | 12.0 | 0.00 | 0.00 | 0.00 | 36 | 1021.5 |
| 20260903031504 | 72 | 213 | 10.0 | 12.0 | 0.00 | 0.00 | 0.00 | 36 | 1021.1 |
| 20260903031003 | 72 | 213 | 10.0 | 12.0 | 0.00 | 0.00 | 0.00 | 36 | 1021.1 |
| 20260903030504 | 72 | 213 | 10.0 | 12.0 | 0.00 | 0.00 | 0.00 | 36 | 1021.0 |
| 20260903030004 | 72 | 213 | 10.0 | 12.0 | 0.00 | 0.00 | 0.00 | 36 | 1021.1 |
| 20260903025504 | 72 | 213 | 10.0 | 12.0 | 0.00 | 0.00 | 0.00 | 36 | 1021.0 |
| 20260903025004 | 72 | 213 | 10.0 | 12.0 | 0.00 | 0.00 | 0.00 | 36 | 1021.0 |
| 20260903024504 | 72 | 213 | 10.0 | 12.0 | 0.00 | 0.00 | 0.00 | 36 | 1020.8 |
| 20260903024004 | 73 | 200 | 8.0 | 9.0 | 0.00 | 0.00 | 0.00 | 37 | 1020.7 |
| 20260903023504 | 73 | 200 | 8.0 | 9.0 | 0.00 | 0.00 | 0.00 | 37 | 1020.7 |
| 20260903023003 | 73 | 200 | 8.0 | 9.0 | 0.00 | 0.00 | 0.00 | 37 | 1020.6 |
| 20260903022504 | 73 | 200 | 8.0 | 9.0 | 0.00 | 0.00 | 0.00 | 37 | 1020.9 |
| 20260903022004 | 73 | 200 | 8.0 | 9.0 | 0.00 | 0.00 | 0.00 | 37 | 1020.8 |
| 20260903021504 | 73 | 211 | 11.0 | 11.0 | 0.00 | 0.00 | 0.00 | 36 | 1020.8 |
| 20260903021004 | 74 | 200 | 11.0 | 14.0 | 0.00 | 0.00 | 0.00 | 36 | 1020.7 |
| 20260903020504 | 74 | 200 | 11.0 | 14.0 | 0.00 | 0.00 | 0.00 | 36 | 1020.8 |
| 20260903020004 | 74 | 200 | 11.0 | 14.0 | 0.00 | 0.00 | 0.00 | 36 | 1021.0 |
| 20260903015504 | 74 | 200 | 11.0 | 14.0 | 0.00 | 0.00 | 0.00 | 36 | 1020.8 |
| 20260903015004 | 74 | 226 | 8.0 | 19.0 | 0.00 | 0.00 | 0.00 | 36 | 1020.7 |
| 20260903014503 | 75 | 203 | 13.0 | 15.0 | 0.00 | 0.00 | 0.00 | 35 | 1020.7 |
| 20260903014003 | 75 | 203 | 13.0 | 15.0 | 0.00 | 0.00 | 0.00 | 35 | 1020.7 |
| 20260903013503 | 75 | 203 | 13.0 | 15.0 | 0.00 | 0.00 | 0.00 | 35 | 1020.8 |
| 20260903013003 | 76 | 204 | 13.0 | 17.0 | 0.00 | 0.00 | 0.00 | 34 | 1020.7 |
| 20260903012503 | 76 | 247 | 14.0 | 15.0 | 0.00 | 0.00 | 0.00 | 33 | 1020.6 |
| 20260903012003 | 76 | 247 | 14.0 | 15.0 | 0.00 | 0.00 | 0.00 | 33 | 1020.6 |
| 20260903011504 | 76 | 229 | 7.0 | 12.0 | 0.00 | 0.00 | 0.00 | 34 | 1020.9 |
| 20260903011004 | 77 | 211 | 9.0 | 10.0 | 0.00 | 0.00 | 0.00 | 34 | 1020.8 |
| 20260903010503 | 77 | 204 | 11.0 | 17.0 | 0.00 | 0.00 | 0.00 | 33 | 1020.9 |
| 20260903010004 | 77 | 217 | 13.0 | 19.0 | 0.00 | 0.00 | 0.00 | 34 | 1020.7 |
| 20260903005504 | 78 | 169 | 10.0 | 20.0 | 0.00 | 0.00 | 0.00 | 34 | 1020.8 |
| 20260903005003 | 77 | 176 | 8.0 | 15.0 | 0.00 | 0.00 | 0.00 | 34 | 1020.8 |
| 20260903004504 | 78 | 191 | 5.0 | 8.0 | 0.00 | 0.00 | 0.00 | 33 | 1020.6 |
| 20260903004004 | 78 | 204 | 8.0 | 21.0 | 0.00 | 0.00 | 0.00 | 33 | 1020.8 |
| 20260903003504 | 78 | 175 | 6.0 | 11.0 | 0.00 | 0.00 | 0.00 | 33 | 1020.8 |
| 20260903003003 | 78 | 207 | 17.0 | 23.0 | 0.00 | 0.00 | 0.00 | 34 | 1020.7 |
| 20260903002503 | 77 | 214 | 14.0 | 14.0 | 0.00 | 0.00 | 0.00 | 34 | 1020.7 |
| 20260903002003 | 78 | 210 | 9.0 | 15.0 | 0.00 | 0.00 | 0.00 | 34 | 1020.8 |
| 20260903001503 | 78 | 159 | 13.0 | 26.0 | 0.00 | 0.00 | 0.00 | 33 | 1021.0 |
| 20260903001004 | 79 | 217 | 7.0 | 10.0 | 0.00 | 0.00 | 0.00 | 34 | 1020.8 |
| 20260903000504 | 78 | 213 | 13.0 | 25.0 | 0.00 | 0.00 | 0.00 | 35 | 1020.7 |
| 20260903000005 | 78 | 221 | 7.0 | 22.0 | 0.00 | 0.00 | 0.00 | 35 | 1020.9 |
| 20260902235503 | 78 | 208 | 17.0 | 17.0 | 0.00 | 0.00 | 0.00 | 35 | 1020.7 |
| 20260902235003 | 78 | 218 | 12.0 | 19.0 | 0.00 | 0.00 | 0.00 | 35 | 1020.8 |
| 20260902234504 | 79 | 226 | 11.0 | 16.0 | 0.00 | 0.00 | 0.00 | 35 | 1021.1 |
| 20260902232504 | 78 | 232 | 6.0 | 11.0 | 0.00 | 0.00 | 0.00 | 37 | 1020.8 |
| 20260902232004 | 78 | 232 | 6.0 | 11.0 | 0.00 | 0.00 | 0.00 | 37 | 1021.1 |
| 20260902230003 | 80 | 191 | 3.0 | 12.0 | 0.00 | 0.00 | 0.00 | 37 | 1021.0 |
| 20260902225503 | 79 | 198 | 16.0 | 18.0 | 0.00 | 0.00 | 0.00 | 38 | 1021.0 |
| 20260902225004 | 79 | 219 | 8.0 | 21.0 | 0.00 | 0.00 | 0.00 | 38 | 1021.0 |
| 20260902224503 | 80 | 228 | 8.0 | 18.0 | 0.00 | 0.00 | 0.00 | 37 | 1021.5 |
| 20260902224003 | 79 | 211 | 13.0 | 18.0 | 0.00 | 0.00 | 0.00 | 38 | 1021.3 |
| 20260902223504 | 78 | 254 | 8.0 | 16.0 | 0.00 | 0.00 | 0.00 | 40 | 1021.3 |
| 20260902223004 | 78 | 189 | 8.0 | 14.0 | 0.00 | 0.00 | 0.00 | 40 | 1021.4 |
| 20260902222504 | 80 | 206 | 13.0 | 15.0 | 0.00 | 0.00 | 0.00 | 39 | 1021.4 |
| 20260902222004 | 79 | 277 | 11.0 | 22.0 | 0.00 | 0.00 | 0.00 | 40 | 1021.5 |
| 20260902221504 | 80 | 203 | 12.0 | 20.0 | 0.00 | 0.00 | 0.00 | 39 | 1021.4 |
| 20260902221004 | 81 | 183 | 7.0 | 13.0 | 0.00 | 0.00 | 0.00 | 38 | 1021.4 |
| 20260902220504 | 80 | 199 | 9.0 | 15.0 | 0.00 | 0.00 | 0.00 | 39 | 1021.5 |
| 20260902220003 | 79 | 212 | 27.0 | 27.0 | 0.00 | 0.00 | 0.00 | 39 | 1021.6 |
| 20260902215503 | 79 | 210 | 5.0 | 14.0 | 0.00 | 0.00 | 0.00 | 40 | 1021.6 |
| 20260902215004 | 78 | 225 | 14.0 | 28.0 | 0.00 | 0.00 | 0.00 | 39 | 1021.8 |
| 20260902214504 | 78 | 225 | 15.0 | 29.0 | 0.00 | 0.00 | 0.00 | 38 | 1021.7 |
| 20260902214004 | 79 | 211 | 18.0 | 21.0 | 0.00 | 0.00 | 0.00 | 39 | 1021.8 |
| 20260902213504 | 79 | 221 | 11.0 | 17.0 | 0.00 | 0.00 | 0.00 | 38 | 1021.8 |
| 20260902213004 | 79 | 215 | 16.0 | 20.0 | 0.00 | 0.00 | 0.00 | 39 | 1021.7 |
| 20260902212504 | 81 | 204 | 18.0 | 19.0 | 0.00 | 0.00 | 0.00 | 39 | 1022.0 |
| 20260902212005 | 80 | 209 | 11.0 | 15.0 | 0.00 | 0.00 | 0.00 | 39 | 1021.8 |
| 20260902211504 | 80 | 209 | 11.0 | 15.0 | 0.00 | 0.00 | 0.00 | 39 | 1022.2 |
| 20260902211004 | 78 | 217 | 15.0 | 16.0 | 0.00 | 0.00 | 0.00 | 40 | 1021.9 |
| 20260902210504 | 78 | 217 | 15.0 | 16.0 | 0.00 | 0.00 | 0.00 | 40 | 1022.3 |
| 20260902210004 | 78 | 217 | 15.0 | 16.0 | 0.00 | 0.00 | 0.00 | 40 | 1022.3 |
| 20260902205504 | 78 | 217 | 15.0 | 16.0 | 0.00 | 0.00 | 0.00 | 40 | 1022.2 |
| 20260902205004 | 78 | 217 | 15.0 | 16.0 | 0.00 | 0.00 | 0.00 | 40 | 1022.0 |
| 20260902204504 | 78 | 217 | 15.0 | 16.0 | 0.00 | 0.00 | 0.00 | 40 | 1022.3 |
| 20260902204004 | 78 | 217 | 15.0 | 16.0 | 0.00 | 0.00 | 0.00 | 40 | 1022.2 |
| 20260902203504 | 78 | 217 | 15.0 | 16.0 | 0.00 | 0.00 | 0.00 | 40 | 1022.2 |
| 20260902203003 | 78 | 217 | 15.0 | 16.0 | 0.00 | 0.00 | 0.00 | 40 | 1022.2 |
| 20260902202504 | 78 | 199 | 10.0 | 28.0 | 0.00 | 0.00 | 0.00 | 44 | 1022.4 |
| 20260902202004 | 76 | 232 | 11.0 | 22.0 | 0.00 | 0.00 | 0.00 | 46 | 1022.3 |
| 20260902201506 | 77 | 226 | 9.0 | 19.0 | 0.00 | 0.00 | 0.00 | 46 | 1022.3 |
| 20260902201004 | 78 | 212 | 17.0 | 20.0 | 0.00 | 0.00 | 0.00 | 45 | 1022.4 |